This is the latest recevied weather packets stored in our database for station/object SV9FBP. If no packets are shown the sender has not sent any weather packets the latest 10 day(s).
| Time | Temp. | Humidity | Pressure | Rain* | Wind** | Luminosity | Snow |
|---|---|---|---|---|---|---|---|
| 1778078396 | 22.22° C | 62% | 1015.5 hPa | 0 mm | - | - | - |
| 1778077494 | 22.78° C | 60% | 1015.7 hPa | 0 mm | - | - | - |
| 1778076591 | 22.78° C | 58% | 1015.7 hPa | 0 mm | - | - | - |
| 1778075689 | 23.33° C | 60% | 1015.7 hPa | 0 mm | - | - | - |
| 1778074787 | 23.33° C | 59% | 1015.8 hPa | 0 mm | - | - | - |
| 1778073884 | 23.89° C | 58% | 1015.9 hPa | 0 mm | - | - | - |
| 1778072983 | 24.44° C | 56% | 1015.9 hPa | 0 mm | - | - | - |
| 1778072081 | 25° C | 57% | 1015.8 hPa | 0 mm | - | - | - |
| 1778071178 | 25° C | 58% | 1015.9 hPa | 0 mm | - | - | - |
| 1778070276 | 25° C | 59% | 1016.1 hPa | 0 mm | - | - | - |
| 1778069373 | 25° C | 61% | 1016.2 hPa | 0 mm | - | - | - |
| 1778068472 | 25° C | 60% | 1016.6 hPa | 0 mm | - | - | - |
| 1778067574 | 25° C | 60% | 1016.5 hPa | 0 mm | - | - | - |
| 1778066667 | 25° C | 60% | 1016.6 hPa | 0 mm | - | - | - |
| 1778065765 | 24.44° C | 59% | 1016.5 hPa | 0 mm | - | - | - |
| 1778064863 | 24.44° C | 59% | 1016.4 hPa | 0 mm | - | - | - |
| 1778063961 | 24.44° C | 59% | 1016.4 hPa | 0 mm | - | - | - |
| 1778063059 | 23.33° C | 59% | 1016.4 hPa | 0 mm | - | - | - |
| 1778062158 | 22.22° C | 63% | 1016.3 hPa | 0 mm | - | - | - |
| 1778061255 | 21.67° C | 64% | 1016.2 hPa | 0 mm | - | - | - |
| 1778060353 | 21.67° C | 64% | 1016.2 hPa | 0 mm | - | - | - |
| 1778059450 | 21.11° C | 63% | 1016.4 hPa | 0 mm | - | - | - |
| 1778058548 | 21.11° C | 62% | 1016.1 hPa | 0 mm | - | - | - |
| 1778057646 | 20.56° C | 61% | 1016.1 hPa | 0 mm | - | - | - |
| 1778056744 | 20.56° C | 61% | 1016 hPa | 0 mm | - | - | - |
* Rain latest hour (hover to see other rain measurements)
** Current wind speed in m/s (hover to see current wind gust speed)